Stations météo

réclame
Mon MeteoGroup
Lyon/Satolas, France (7481): Température de l'air & dewpoint: 07.11.2019 22:00:00 - 13.11.2019 22:00:00 (CET)Lyon/Satolas, France (7481): Température de l'air 5cm: 07.11.2019 22:00:00 - 13.11.2019 22:00:00 (CET)Lyon/Satolas, France (7481): Température de l'air -20cm & Température de l'air -100cm: 07.11.2019 22:00:00 - 13.11.2019 22:00:00 (CET)Lyon/Satolas, France (7481): Vitesse du vent & gusts: 07.11.2019 22:00:00 - 13.11.2019 22:00:00 (CET)Lyon/Satolas, France (7481): Direction du vent: 07.11.2019 22:00:00 - 13.11.2019 22:00:00 (CET)Lyon/Satolas, France (7481): reduced air pressure: 07.11.2019 22:00:00 - 13.11.2019 22:00:00 (CET)Lyon/Satolas, France (7481): visibility: 07.11.2019 22:00:00 - 13.11.2019 22:00:00 (CET)Lyon/Satolas, France (7481): Quantités de précipitations: 07.11.2019 22:00:00 - 13.11.2019 22:00:00 (CET)
Date & Time tt [°C] td [°C] tt 5cm [°C] tt -20cm [°C] tt -100cm [°C] ff [km/h] ff [knt] fx [km/h] fx [knt] dd ppp [hPa] vv [km] rr [mm]
13.11.2019 22:00:00 2,9 1,1 1,9 9,1 13,4 9 5 21 11 S 1007,7 30 0,0
13.11.2019 21:00:00 3,7 1,6 3,0 9,4 13,4 16 9 21 11 SE 1007,7 20 0,0
13.11.2019 20:00:00 5,4 1,9 0,8 9,5 13,4 8 4 19 10 SE 1008,1 30 0,0
13.11.2019 19:00:00 5,4 2,0 1,1 9,7 13,4 5 3 10 6 ENE 1008,6 30 0,0
13.11.2019 18:00:00 6,1 2,2 2,0 9,8 13,4 5 3 11 6 NE 1008,6 40 0,0
13.11.2019 17:00:00 8,0 2,4 7,6 9,8 13,5 10 5 14 7 N 1008,0 46 0,0
13.11.2019 16:00:00 8,4 1,5 9,0 9,7 13,5 4 2 17 9 NNE 1008,1 40 0,0
13.11.2019 15:00:00 8,6 1,3 10,5 9,4 13,5 6 3 21 11 N 1007,8 40 0,0
13.11.2019 14:00:00 8,0 2,0 10,5 9,1 13,5 9 5 18 10 N 1008,0 30 0,0
13.11.2019 13:00:00 7,4 2,3 9,2 8,8 13,5 10 5 17 9 N 1008,3 30 0,0
13.11.2019 12:00:00 6,5 2,8 8,4 8,6 13,5 7 4 26 14 NNW 1008,8 31 0,0
13.11.2019 11:00:00 5,4 3,1 6,5 8,5 13,5 8 4 18 10 E 1009,0 20 0,0
13.11.2019 10:00:00 4,4 2,7 5,5 8,6 13,5 4 2 13 7 NE 1008,8 30 0,0
13.11.2019 09:00:00 3,9 3,2 0,9 8,7 13,5 2 1 12 6 W 1008,2 25 0,0
13.11.2019 08:00:00 2,7 1,8 -0,3 8,8 13,6 7 4 10 5 N 1007,4 25 0,0
13.11.2019 07:00:00 3,1 1,9 1,3 8,9 13,6 4 2 10 5 N 1006,9 20 0,0
13.11.2019 06:00:00 3,9 3,0 3,9 8,9 13,6 4 2 6 3 NNW 1006,3 15 0,0
13.11.2019 05:00:00 3,9 3,0 3,6 9,0 13,6 2 1 8 4 N 1006,4 15 0,0
13.11.2019 04:00:00 3,9 3,0 3,6 9,1 13,6 5 3 8 5 NNW 1006,2 15 0,0
13.11.2019 03:00:00 3,8 2,9 1,6 9,2 13,6 4 2 11 6 ESE 1006,2 15 0,0
13.11.2019 02:00:00 3,8 2,9 2,6 9,4 13,6 9 5 18 10 ENE 1006,1 10 0,0
13.11.2019 01:00:00 5,0 3,5 3,7 9,5 13,6 13 7 25 14 ENE 1005,8 10 0,0
13.11.2019 00:00:00 5,9 3,9 3,8 9,5 13,6 4 2 10 6 ESE 1005,2 15 0,2
12.11.2019 23:00:00 6,2 3,7 5,1 9,6 13,6 2 1 12 6 S 1005,3 20 0,0
12.11.2019 22:00:00 6,7 3,7 5,9 9,7 13,6 6 4 23 13 SW 1005,5 30 0,0
12.11.2019 21:00:00 7,5 3,0 6,9 9,8 13,7 8 5 16 9 S 1005,9 35 0,0
12.11.2019 20:00:00 7,5 3,2 6,8 9,8 13,7 14 8 48 26 SE 1006,2 35 0,0
12.11.2019 19:00:00 7,7 3,2 6,6 9,9 13,7 15 8 35 19 SE 1006,8 35 0,0
12.11.2019 18:00:00 8,5 2,9 6,5 9,9 13,7 9 5 18 10 SE 1007,1 40 0,0
12.11.2019 17:00:00 8,9 2,5 7,1 9,9 13,7 5 3 11 6 E 1007,1 40 0,0
12.11.2019 16:00:00 9,8 1,9 9,8 9,8 13,7 5 3 10 6 NE 1007,3 40 0,0
12.11.2019 15:00:00 10,2 1,6 10,7 9,5 13,7 4 2 14 7 NNE 1007,3 40 0,0
12.11.2019 14:00:00 9,9 1,3 12,3 9,2 13,7 8 4 18 10 NNE 1008,3 40 0,0
12.11.2019 13:00:00 9,8 0,7 12,7 8,9 13,7 5 3 17 9 ENE 1009,0 40 0,0
12.11.2019 12:00:00 9,7 1,3 10,9 8,6 13,8 6 4 15 8 ESE 1010,1 40 0,0
12.11.2019 11:00:00 7,9 3,7 10,8 8,5 13,7 6 4 14 8 SSE 1011,3 30 0,0
12.11.2019 10:00:00 6,1 3,6 8,4 8,5 13,8 9 5 18 10 SE 1011,5 30 0,0
12.11.2019 09:00:00 4,8 2,3 1,4 8,6 13,8 11 6 14 8 SE 1012,2 25 0,0
12.11.2019 08:00:00 2,9 2,2 -0,3 8,8 13,8 7 4 12 7 S 1012,3 25 0,0
12.11.2019 07:00:00 3,3 2,4 -0,4 9,0 13,8 8 4 13 7 SE 1012,3 25 0,0
12.11.2019 06:00:00 3,6 2,4 0,2 9,1 13,8 0 0 6 3 N 1012,5 25 0,0
12.11.2019 05:00:00 4,5 3,0 1,2 9,2 13,8 3 1 8 5 SW 1012,8 35 0,0
12.11.2019 04:00:00 5,7 3,2 3,9 9,3 13,8 0 0 8 5 N 1013,1 40 0,0
12.11.2019 03:00:00 6,1 3,3 5,6 9,4 13,9 6 4 10 5 W 1013,5 40 0,0
12.11.2019 02:00:00 6,1 3,6 5,2 9,5 13,9 3 2 10 5 E 1013,4 40 0,0
12.11.2019 01:00:00 5,9 3,4 4,7 9,5 13,9 9 5 14 8 WNW 1013,6 30 0,0
12.11.2019 00:00:00 6,9 4,2 6,5 9,5 13,9 9 5 17 9 NW 1013,2 20 0,0
11.11.2019 23:00:00 6,9 5,0 6,2 9,6 13,9 9 5 21 11 NW 1012,8 15 0,0
11.11.2019 22:00:00 7,0 5,3 6,4 9,6 13,9 8 4 13 7 WNW 1012,2 12 0,0
11.11.2019 21:00:00 7,5 5,1 6,7 9,6 13,9 4 2 12 6 ESE 1011,4 12 0,0
11.11.2019 20:00:00 7,7 4,5 6,4 9,7 14,0 3 1 11 6 SSE 1010,5 13 0,0
11.11.2019 19:00:00 7,9 4,1 6,8 9,7 14,0 11 6 23 13 SSE 1010,2 19 0,0
11.11.2019 18:00:00 8,0 4,4 7,5 9,7 14,0 13 7 21 11 SE 1009,7 25 0,0
11.11.2019 17:00:00 8,5 4,9 8,2 9,6 14,0 10 5 17 9 ESE 1009,6 25 0,0
11.11.2019 16:00:00 9,4 4,8 9,6 9,5 14,1 8 5 13 7 ESE 1009,6 30 0,0
11.11.2019 15:00:00 9,9 4,5 10,6 9,2 14,0 8 4 16 8 E 1009,8 30 0,0
11.11.2019 14:00:00 9,2 4,4 10,0 8,9 14,1 9 5 16 9 SE 1010,4 30 0,0
11.11.2019 13:00:00 8,1 4,5 9,7 8,7 14,1 12 7 19 11 ESE 1011,0 18 0,0
11.11.2019 12:00:00 6,7 4,5 7,7 8,5 14,1 3 2 10 5 SE 1012,4 9 0,0
11.11.2019 11:00:00 5,3 4,3 5,6 8,3 14,1 4 2 14 8 S 1013,6 7 0,0
11.11.2019 10:00:00 4,2 3,9 4,0 8,3 14,1 10 5 31 17 SSE 1014,3 4,5 0,0
11.11.2019 09:00:00 3,4 3,4 3,0 8,3 14,1 4 2 16 9 SE 1014,9 0,8 0,0
11.11.2019 08:00:00 2,8 2,7 2,6 8,3 14,2 8 4 12 6 E 1015,0 0,3 0,0
11.11.2019 07:00:00 2,9 2,9 2,3 8,4 14,2 4 2 13 7 SE 1015,5 0,3 0,0
11.11.2019 06:00:00 2,2 2,1 0,7 8,5 14,2 9 5 11 6 ESE 1015,6 0,4 0,0
11.11.2019 05:00:00 2,0 1,7 -0,3 8,6 14,2 10 5 14 8 ESE 1015,4 3,0 0,0
11.11.2019 04:00:00 1,4 0,8 -0,6 8,8 14,2 0 0 9 5 N 1015,8 3,5 0,0
11.11.2019 03:00:00 2,7 2,1 -0,7 8,9 14,2 8 4 9 5 SSW 1015,7 7 0,0
11.11.2019 02:00:00 2,5 2,2 -0,8 9,1 14,2 4 2 11 6 NNW 1016,5 0,4 0,0
11.11.2019 01:00:00 2,6 2,3 -0,7 9,3 14,3 0 0 16 8 N 1016,4 0,4 0,0
11.11.2019 00:00:00 2,6 1,9 -0,6 9,5 14,3 4 2 14 8 WNW 1015,9 0,4 0,0
10.11.2019 23:00:00 3,3 2,4 -0,3 9,7 14,3 3 2 11 6 WNW 1015,2 18 0,0
10.11.2019 22:00:00 3,9 3,0 0,5 9,9 14,3 4 2 11 6 NW 1015,3 25 0,0
10.11.2019 21:00:00 4,2 2,9 1,4 10,0 14,3 7 4 15 8 NNW 1015,4 30 0,0
10.11.2019 20:00:00 4,9 3,4 3,4 10,2 14,3 9 5 15 8 NNW 1015,4 35 0,0
10.11.2019 19:00:00 5,9 3,6 4,1 10,3 14,3 7 4 15 8 NNW 1014,9 50 0,0
10.11.2019 18:00:00 7,0 3,8 4,9 10,4 14,3 11 6 20 11 N 1013,9 50 0,0
10.11.2019 17:00:00 8,4 3,6 7,7 10,4 14,3 15 8 21 12 N 1013,1 60 0,0
10.11.2019 16:00:00 9,4 3,1 10,0 10,3 14,3 11 6 19 11 N 1012,4 50 0,0
10.11.2019 15:00:00 9,6 3,1 11,6 10,1 14,4 12 6 19 11 NNE 1011,8 40 0,0
10.11.2019 14:00:00 9,1 3,7 11,4 10,0 14,4 12 7 18 10 N 1011,6 40 0,0
10.11.2019 13:00:00 8,7 3,7 10,8 9,8 14,4 10 6 14 8 N 1011,3 40 0,0
10.11.2019 12:00:00 8,5 4,1 9,8 9,6 14,4 4 2 12 6 WNW 1011,4 30 0,0
10.11.2019 11:00:00 7,2 5,0 8,7 9,5 14,4 4 2 14 8 NNE 1011,5 30 0,0
10.11.2019 10:00:00 6,4 4,7 5,8 9,5 14,4 2 1 15 8 SSE 1010,8 40 0,0
10.11.2019 09:00:00 5,8 4,6 4,9 9,5 14,4 11 6 18 10 SE 1010,0 40 0,0
10.11.2019 08:00:00 5,4 4,2 4,9 9,5 14,5 12 6 18 10 E 1009,9 13 0,4
10.11.2019 07:00:00 6,5 3,5 6,2 9,6 14,5 4 2 18 10 ESE 1009,3 40 0,0
10.11.2019 06:00:00 6,7 3,3 6,0 9,6 14,5 6 3 29 16 ESE 1008,7 40 0,0
10.11.2019 05:00:00 6,9 3,1 6,4 9,6 14,5 15 8 32 17 SSE 1008,1 40 0,0
10.11.2019 04:00:00 6,8 3,2 6,0 9,7 14,5 17 9 32 18 S 1007,9 35 0,0
10.11.2019 03:00:00 6,4 3,4 5,1 9,7 14,5 21 11 35 19 SSE 1008,2 25 0,2
10.11.2019 02:00:00 5,9 4,1 4,8 9,8 14,5 17 9 30 16 SSE 1008,4 7 0,6
10.11.2019 01:00:00 5,9 2,9 4,7 9,9 14,5 10 6 24 13 SSE 1007,9 20 0,0
10.11.2019 00:00:00 4,8 3,0 3,8 10,1 14,5 17 9 27 15 SE 1008,2 20 0,0
09.11.2019 23:00:00 4,5 2,8 3,8 10,3 14,5 19 11 25 14 SE 1008,4 20 0,0
09.11.2019 22:00:00 5,0 3,2 4,0 10,4 14,6 9 5 18 10 SSE 1009,1 18 0,0
09.11.2019 21:00:00 5,7 3,7 4,8 10,6 14,6 15 8 20 11 SSE 1009,0 18 0,0
09.11.2019 20:00:00 6,3 3,6 4,6 10,8 14,6 13 7 19 10 SSE 1009,3 25 0,0
09.11.2019 19:00:00 7,0 3,2 4,9 10,9 14,6 7 4 14 8 SSE 1009,6 40 0,0
09.11.2019 18:00:00 7,5 3,4 5,9 11,0 14,6 9 5 15 8 SE 1010,1 50 0,0
09.11.2019 17:00:00 9,2 2,7 7,7 11,0 14,6 5 3 10 5 ESE 1010,6 70 0,0
09.11.2019 16:00:00 9,7 3,2 10,6 10,9 14,6 4 2 16 8 N 1011,2 15 0,0
09.11.2019 15:00:00 9,9 3,6 11,4 10,7 14,7 13 7 21 11 NNE 1011,7 50 0,0
09.11.2019 14:00:00 10,0 4,6 10,6 10,4 14,7 16 9 24 13 N 1012,0 50 0,0
09.11.2019 13:00:00 9,2 4,6 10,4 10,1 14,7 11 6 21 12 N 1012,7 40 0,0
09.11.2019 12:00:00 8,9 5,5 11,4 9,9 14,7 9 5 18 10 NW 1013,3 30 0,0
09.11.2019 11:00:00 7,2 5,3 8,8 9,8 14,7 4 2 10 5 NW 1014,1 15 0,0
09.11.2019 10:00:00 6,1 4,7 6,4 9,8 14,7 2 1 10 5 NNW 1014,3 9 0,0
09.11.2019 09:00:00 5,4 4,7 5,1 9,8 14,8 4 2 11 6 ENE 1014,6 6 0,0
09.11.2019 08:00:00 5,1 4,4 4,9 9,8 14,7 4 2 10 6 N 1014,1 8 0,0
09.11.2019 07:00:00 5,1 4,2 4,9 9,9 14,8 8 5 12 6 NNE 1013,4 7 0,0
09.11.2019 06:00:00 5,1 4,4 4,3 10,0 14,8 8 5 11 6 N 1013,1 15 0,0
09.11.2019 05:00:00 4,7 4,0 2,8 10,1 14,8 4 2 11 6 NW 1012,4 15 0,0
09.11.2019 04:00:00 4,6 3,7 3,1 10,2 14,8 8 4 10 6 NNE 1011,9 13 0,0
09.11.2019 03:00:00 5,1 3,8 2,9 10,4 14,8 9 5 11 6 N 1011,6 15 0,0
09.11.2019 02:00:00 6,0 4,2 3,7 10,4 14,8 9 5 20 11 NNW 1011,0 15 0,0
09.11.2019 01:00:00 6,6 4,9 6,3 10,5 14,9 5 3 10 6 WNW 1010,5 15 0,0
09.11.2019 00:00:00 6,5 4,8 6,1 10,5 14,9 5 3 9 5 W 1009,8 30 0,0
08.11.2019 23:00:00 6,3 4,9 6,0 10,6 14,9 2 1 12 7 NW 1009,2 30 0,0
08.11.2019 22:00:00 6,0 4,8 4,3 10,7 14,9 5 3 8 4 NNE 1008,8 40 0,0
08.11.2019 21:00:00 5,7 4,3 3,0 10,8 15,0 2 1 4 2 N 1008,2 40 0,0
08.11.2019 20:00:00 5,8 4,3 2,6 11,0 15,0 3 2 5 3 N 1007,6 40 0,0
08.11.2019 19:00:00 7,2 4,5 4,4 11,1 15,0 4 2 10 5 SW 1006,5 50 0,0
08.11.2019 18:00:00 8,2 5,3 7,1 11,1 15,0 7 4 10 5 WSW 1005,6 50 0,0
08.11.2019 17:00:00 9,5 6,4 9,0 11,1 15,0 6 4 13 7 WSW 1004,9 50 0,0
08.11.2019 16:00:00 10,6 4,1 10,4 11,0 15,0 7 4 23 12 SE 1004,4 50 0,0
08.11.2019 15:00:00 10,8 3,8 11,6 10,8 15,0 5 3 14 8 SE 1003,9 50 0,0
08.11.2019 14:00:00 11,2 4,2 11,3 10,6 15,1 7 4 38 20 ESE 1003,5 50 0,0
08.11.2019 13:00:00 11,5 4,7 13,0 10,3 15,1 11 6 24 13 SE 1003,3 50 0,0
08.11.2019 12:00:00 10,1 4,5 11,3 10,0 15,1 13 7 22 12 SE 1003,9 50 0,0
08.11.2019 11:00:00 8,7 5,3 9,3 9,8 15,1 11 6 18 10 SE 1004,5 30 0,0
08.11.2019 10:00:00 4,8 4,7 5,2 9,8 15,1 3 1 11 6 S 1005,1 3,0 0,0
08.11.2019 09:00:00 4,0 3,9 3,1 9,9 15,1 9 5 14 8 SSW 1005,4 0,4 0,0
08.11.2019 08:00:00 3,7 3,4 2,4 10,0 15,1 9 5 14 8 S 1004,7 0,4 0,0
08.11.2019 07:00:00 4,9 4,3 1,9 10,2 15,1 8 4 12 6 SSE 1004,3 0,5 0,0
08.11.2019 06:00:00 4,1 4,0 0,4 10,4 15,2 4 2 9 5 S 1004,4 6 0,0
08.11.2019 05:00:00 3,7 2,8 1,5 10,5 15,2 3 2 19 11 WNW 1004,3 12 0,0
08.11.2019 04:00:00 5,0 4,3 4,1 10,7 15,2 13 7 20 11 SE 1004,1 20 0,0
08.11.2019 03:00:00 5,8 4,8 5,0 10,8 15,2 12 7 17 9 SE 1004,4 25 0,0
08.11.2019 02:00:00 6,8 5,3 6,0 10,9 15,2 12 6 20 11 SSE 1004,7 25 0,0
08.11.2019 01:00:00 6,9 5,2 6,2 10,9 15,2 11 6 20 11 SE 1004,8 25 0,0
08.11.2019 00:00:00 7,6 5,4 6,7 11,0 15,2 12 7 19 10 SE 1005,1 25 0,0
07.11.2019 23:00:00 7,3 6,1 6,7 11,1 15,3 12 6 21 12 SE 1005,6 25 0,0
07.11.2019 22:00:00 7,7 6,2 6,5 11,2 15,3 4 2 18 10 SSE 1005,9 30 1,0

tt = Température de l'air
td = dewpoint
tt 5cm = Température de l'air 5cm
tt -20cm = Température de l'air -20cm
tt -100cm = Température de l'air -100cm
ff = Vitesse du vent
fx = gusts
dd = Direction du vent
ppp = reduced air pressure
vv = visibility
rr = Quantités de précipitations

stations d'obs. à proximité